EW8275 Weather Reports


Display with metric or nautical units.
time (UTC)temp
F
wind
direction
speed
MPH
gust
MPH
rain 1hr
in
rain 24hr
in
rain mn
in
humidity
%
barometer
mb
20260904195634 63 242 2.0 5.0 0.00 0.39 0.08 77 1014.2
20260904195132 63 266 2.0 6.0 0.00 0.39 0.08 77 1014.1
20260904194644 63 289 2.0 6.0 0.00 0.39 0.08 77 1014.1
20260904194126 63 338 2.0 5.0 0.00 0.39 0.08 76 1013.9
20260904193643 63 233 2.0 6.0 0.00 0.39 0.08 76 1014.0
20260904193124 63 281 2.0 10.0 0.00 0.39 0.08 76 1013.9
20260904192615 63 31 3.0 10.0 0.00 0.39 0.08 75 1013.9
20260904192112 63 273 2.0 9.0 0.00 0.39 0.08 75 1013.8
20260904191647 63 251 3.0 9.0 0.00 0.39 0.08 75 1013.8
20260904191135 63 281 3.0 8.0 0.00 0.39 0.08 76 1013.8
20260904190626 63 209 1.0 5.0 0.00 0.39 0.08 75 1013.5
20260904190129 63 221 3.0 7.0 0.00 0.39 0.08 76 1013.5
20260904185644 63 5 2.0 12.0 0.00 0.39 0.08 76 1013.4
20260904185129 63 231 4.0 12.0 0.00 0.39 0.08 78 1013.4
20260904184626 63 226 2.0 5.0 0.00 0.39 0.08 78 1013.3
20260904184133 63 269 2.0 5.0 0.00 0.39 0.08 78 1013.3
20260904183614 63 309 2.0 6.0 0.00 0.39 0.08 78 1013.3
20260904183150 63 233 2.0 8.0 0.00 0.39 0.08 78 1013.2
20260904182620 63 331 2.0 8.0 0.00 0.39 0.08 78 1013.2
20260904182127 64 297 1.0 9.0 0.00 0.39 0.08 77 1013.1
20260904181634 64 271 2.0 9.0 0.00 0.39 0.08 77 1013.1
20260904181128 64 300 2.0 6.0 0.00 0.39 0.08 76 1013.1
20260904180619 64 257 3.0 8.0 0.00 0.39 0.08 77 1013.1
20260904180151 64 267 3.0 9.0 0.00 0.39 0.08 77 1013.1
20260904175637 64 291 4.0 9.0 0.00 0.39 0.08 77 1012.9
20260904175110 64 286 4.0 9.0 0.00 0.39 0.08 79 1013.0
20260904174639 65 292 2.0 11.0 0.00 0.39 0.08 78 1012.9
20260904174116 65 5 5.0 15.0 0.00 0.39 0.08 77 1012.7
20260904173644 65 300 4.0 15.0 0.00 0.39 0.08 77 1012.7
20260904173110 65 219 4.0 11.0 0.00 0.39 0.08 77 1012.6
20260904172640 65 317 5.0 11.0 0.00 0.39 0.08 77 1012.6
20260904172121 65 272 2.0 12.0 0.00 0.39 0.08 77 1012.6
20260904171626 65 229 4.0 12.0 0.00 0.39 0.08 77 1012.5
20260904171131 65 224 2.0 8.0 0.00 0.39 0.08 78 1012.4
20260904170642 65 346 3.0 13.0 0.00 0.39 0.08 78 1012.5
20260904170121 65 261 2.0 13.0 0.00 0.39 0.08 77 1012.2
20260904165620 65 261 3.0 13.0 0.00 0.39 0.08 78 1012.3
20260904165140 65 185 4.0 13.0 0.00 0.39 0.08 78 1012.4
20260904164629 65 267 4.0 8.0 0.00 0.39 0.08 79 1012.3
20260904164127 65 307 3.0 8.0 0.00 0.39 0.08 79 1012.1
20260904163621 65 227 3.0 10.0 0.00 0.39 0.08 78 1012.0
20260904163133 65 245 3.0 9.0 0.00 0.39 0.08 79 1012.0
20260904162622 66 182 3.0 11.0 0.00 0.39 0.08 79 1012.1
20260904162125 66 244 5.0 11.0 0.00 0.39 0.08 77 1011.8
20260904161636 66 290 4.0 8.0 0.00 0.39 0.08 79 1011.7
20260904161202 66 281 3.0 13.0 0.00 0.39 0.08 79 1011.9
20260904160622 66 164 3.0 13.0 0.00 0.39 0.08 79 1011.9
20260904160128 66 234 3.0 10.0 0.00 0.39 0.08 79 1011.7
20260904155625 66 287 3.0 9.0 0.00 0.39 0.08 79 1011.9
20260904155131 66 302 3.0 8.0 0.00 0.39 0.08 78 1011.7
20260904154624 66 186 2.0 16.0 0.00 0.39 0.08 79 1011.6
20260904154127 66 217 5.0 12.0 0.00 0.39 0.08 81 1011.5
20260904153642 66 271 4.0 12.0 0.00 0.39 0.08 80 1011.7
20260904153116 66 271 3.0 9.0 0.00 0.39 0.08 81 1011.9
20260904152618 66 259 4.0 16.0 0.00 0.39 0.08 81 1011.6
20260904152120 66 271 3.0 16.0 0.00 0.39 0.08 81 1011.5
20260904151618 66 223 3.0 13.0 0.00 0.39 0.08 81 1011.4
20260904151126 67 313 4.0 10.0 0.00 0.39 0.08 80 1011.5
20260904150611 67 281 4.0 13.0 0.00 0.39 0.08 82 1011.4
20260904150123 67 261 5.0 11.0 0.00 0.39 0.08 84 1011.2
20260904145640 67 301 4.0 11.0 0.00 0.39 0.08 84 1011.4
20260904145128 67 287 5.0 11.0 0.00 0.39 0.08 84 1011.5
20260904144618 68 209 4.0 14.0 0.00 0.39 0.08 85 1011.3
20260904144130 68 236 3.0 14.0 0.00 0.39 0.08 86 1011.2
20260904143641 68 278 4.0 11.0 0.00 0.39 0.08 86 1011.1
20260904143118 67 31 3.0 14.0 0.00 0.39 0.08 87 1011.1
20260904142640 66 256 4.0 14.0 0.00 0.39 0.08 87 1011.1
20260904142127 67 244 3.0 9.0 0.00 0.39 0.08 88 1011.1
20260904141644 66 274 2.0 11.0 0.00 0.39 0.08 87 1011.0
20260904141128 66 277 4.0 13.0 0.00 0.39 0.08 87 1010.9
20260904140703 66 232 4.0 13.0 0.00 0.39 0.08 88 1010.8
20260904140121 66 265 2.0 12.0 0.00 0.39 0.08 88 1010.8
20260904135648 66 142 3.0 12.0 0.00 0.39 0.08 88 1010.9
20260904135111 67 302 3.0 9.0 0.00 0.39 0.08 89 1011.1
20260904134631 66 242 3.0 10.0 0.00 0.39 0.08 89 1010.8
20260904134113 66 240 4.0 12.0 0.00 0.39 0.08 89 1010.8
20260904133626 66 298 3.0 15.0 0.00 0.39 0.08 91 1010.5
20260904133150 66 288 4.0 13.0 0.00 0.39 0.08 91 1010.7
20260904132634 66 302 3.0 8.0 0.00 0.39 0.08 92 1010.6
20260904132114 65 234 3.0 16.0 0.00 0.39 0.08 91 1010.3
20260904131622 65 193 3.0 16.0 0.04 0.39 0.08 92 1010.3
20260904131117 65 242 4.0 10.0 0.04 0.39 0.08 92 1010.3
20260904130620 65 252 3.0 10.0 0.04 0.39 0.08 92 1010.5
20260904130127 65 199 2.0 11.0 0.04 0.39 0.08 92 1010.3
20260904125618 65 178 4.0 11.0 0.04 0.39 0.08 92 1010.3
20260904125131 65 234 2.0 14.0 0.04 0.39 0.08 92 1010.4
20260904124644 65 216 5.0 14.0 0.04 0.39 0.08 92 1010.1
20260904124134 65 214 2.0 12.0 0.04 0.39 0.08 93 1010.2
20260904123616 65 88 2.0 12.0 0.04 0.39 0.08 94 1010.2
20260904123120 65 232 3.0 10.0 0.08 0.39 0.08 94 1010.1
20260904122627 65 146 3.0 11.0 0.08 0.39 0.08 94 1010.1
20260904122115 65 263 5.0 11.0 0.08 0.39 0.08 94 1010.2
20260904121701 65 271 3.0 11.0 0.08 0.35 0.07 94 1010.1
20260904121140 65 230 4.0 11.0 0.12 0.35 0.07 94 1010.0
20260904120623 65 194 4.0 6.0 0.12 0.35 0.07 94 1009.9
20260904120123 65 221 2.0 7.0 0.12 0.35 0.07 94 1010.0
20260904115637 65 285 3.0 10.0 0.12 0.35 0.07 94 1009.9
20260904115120 65 226 2.0 7.0 0.16 0.35 0.07 94 1009.8
20260904114640 65 197 3.0 7.0 0.20 0.35 0.07 94 1009.7
20260904114141 65 277 2.0 12.0 0.35 0.35 0.07 94 1009.7
20260904113625 65 338 4.0 12.0 0.31 0.31 0.06 94 1009.7
20260904113123 65 321 3.0 8.0 0.31 0.31 0.06 93 1009.6
20260904112639 65 272 3.0 10.0 0.31 0.31 0.06 93 1009.7
20260904112124 65 272 2.0 10.0 0.31 0.31 0.06 93 1009.8
20260904111624 65 294 3.0 8.0 0.28 0.28 0.06 93 1009.7
20260904111137 64 236 2.0 8.0 0.24 0.24 0.05 93 1009.7
20260904110620 64 215 4.0 8.0 0.24 0.24 0.05 92 1009.6
20260904110112 65 253 2.0 7.0 0.24 0.24 0.05 91 1009.6
20260904105651 65 227 3.0 7.0 0.24 0.24 0.05 90 1009.6
20260904105115 66 321 3.0 11.0 0.20 0.20 0.04 88 1009.5
20260904104616 68 261 2.0 11.0 0.16 0.16 0.03 85 1009.6
20260904104140 70 276 4.0 20.0 0.00 0.00 0.00 85 1009.5
20260904103616 70 220 3.0 20.0 0.00 0.00 0.00 84 1009.1
20260904103123 71 211 5.0 19.0 0.00 0.00 0.00 83 1009.3
20260904102636 71 200 5.0 20.0 0.00 0.00 0.00 83 1008.9
20260904102138 71 192 8.0 20.0 0.00 0.00 0.00 82 1008.9
20260904101627 71 174 6.0 14.0 0.00 0.00 0.00 82 1008.8
20260904101131 71 238 5.0 17.0 0.00 0.00 0.00 82 1008.9
20260904100619 71 238 6.0 18.0 0.00 0.00 0.00 81 1008.9
20260904100114 71 211 7.0 18.0 0.00 0.00 0.00 82 1008.9
20260904095648 71 333 7.0 21.0 0.00 0.00 0.00 82 1008.8
20260904095147 71 248 6.0 23.0 0.00 0.00 0.00 82 1008.9
20260904094625 71 203 6.0 22.0 0.00 0.00 0.00 82 1008.8
20260904094119 71 236 9.0 19.0 0.00 0.00 0.00 82 1008.9
20260904093624 71 98 7.0 21.0 0.00 0.00 0.00 82 1009.0
20260904093131 71 193 14.0 22.0 0.00 0.00 0.00 82 1009.3
20260904092633 71 263 7.0 21.0 0.00 0.00 0.00 82 1008.9
20260904092139 71 153 6.0 20.0 0.00 0.00 0.00 82 1009.0
20260904091623 71 218 7.0 18.0 0.00 0.00 0.00 82 1008.9
20260904091128 71 273 6.0 25.0 0.00 0.00 0.00 83 1009.0
20260904090631 71 200 10.0 24.0 0.00 0.00 0.00 82 1009.1
20260904090120 71 219 10.0 20.0 0.00 0.00 0.00 82 1008.9
20260904085658 72 230 10.0 20.0 0.00 0.00 0.00 81 1008.8
20260904085119 72 175 7.0 23.0 0.00 0.00 0.00 81 1008.9
20260904084625 72 193 8.0 23.0 0.00 0.00 0.00 81 1008.7
20260904084114 71 204 7.0 22.0 0.00 0.00 0.00 82 1008.7
20260904083659 71 212 9.0 20.0 0.00 0.00 0.00 83 1008.6
20260904083127 71 198 6.0 25.0 0.00 0.00 0.00 83 1008.7
20260904082637 71 217 11.0 25.0 0.00 0.00 0.00 83 1009.0
20260904082154 71 236 6.0 19.0 0.00 0.00 0.00 83 1008.8
20260904081642 71 175 9.0 19.0 0.00 0.00 0.00 84 1008.8
20260904081116 70 218 5.0 19.0 0.00 0.00 0.00 85 1008.8
20260904080617 70 230 10.0 19.0 0.00 0.00 0.00 85 1008.8
20260904080146 70 103 6.0 21.0 0.00 0.00 0.00 85 1008.9
20260904075620 70 198 9.0 21.0 0.00 0.00 0.00 85 1009.0
20260904075119 70 242 7.0 16.0 0.00 0.00 0.00 85 1009.0
20260904074615 70 173 6.0 16.0 0.00 0.00 0.00 84 1009.0
20260904074138 70 273 5.0 23.0 0.00 0.00 0.00 84 1009.0
20260904073646 70 171 7.0 23.0 0.00 0.00 0.00 83 1009.2
20260904073116 70 215 6.0 22.0 0.00 0.00 0.00 83 1009.2
20260904072646 70 229 8.0 30.0 0.00 0.00 0.00 83 1009.3
20260904072114 70 178 9.0 24.0 0.00 0.00 0.00 83 1009.2
20260904071644 70 300 5.0 15.0 0.00 0.00 0.00 83 1009.3
20260904071127 70 336 5.0 18.0 0.00 0.00 0.00 83 1009.2
20260904070646 70 261 6.0 19.0 0.00 0.00 0.00 83 1009.4
20260904070134 70 198 8.0 19.0 0.00 0.00 0.00 84 1009.2
20260904065614 70 202 6.0 20.0 0.00 0.08 0.00 84 1009.3
20260904065118 70 313 5.0 20.0 0.00 0.08 0.00 84 1009.2
20260904064624 70 226 5.0 20.0 0.00 0.08 0.00 83 1009.4
20260904064128 70 254 5.0 17.0 0.00 0.08 0.00 84 1009.5
20260904063641 70 203 7.0 16.0 0.00 0.08 0.00 84 1009.2
20260904063147 70 161 8.0 23.0 0.00 0.08 0.00 84 1009.2
20260904062626 70 192 11.0 23.0 0.00 0.08 0.00 84 1009.2
20260904062144 70 195 8.0 18.0 0.00 0.08 0.00 84 1009.4
20260904061704 70 15 8.0 17.0 0.00 0.08 0.00 84 1009.6
20260904061113 70 165 5.0 20.0 0.00 0.08 0.00 84 1009.6
20260904060638 69 217 8.0 20.0 0.00 0.08 0.00 84 1009.6
20260904060121 69 296 6.0 17.0 0.00 0.08 0.00 84 1009.7
20260904055618 69 326 6.0 17.0 0.00 0.24 0.00 84 1009.8
20260904055144 69 213 7.0 21.0 0.00 0.24 0.00 84 1009.8
20260904054620 69 234 9.0 21.0 0.00 0.24 0.00 85 1009.8
20260904054125 69 192 7.0 21.0 0.00 0.24 0.00 85 1009.9
20260904053631 69 200 6.0 20.0 0.00 0.24 0.00 85 1009.8
20260904053148 69 181 8.0 21.0 0.00 0.24 0.00 86 1009.9
20260904052613 69 194 10.0 19.0 0.00 0.24 0.00 86 1010.0
20260904052132 69 215 8.0 18.0 0.00 0.24 0.00 86 1010.0
20260904051622 69 228 6.0 18.0 0.00 0.24 0.00 87 1009.9
20260904051123 69 201 5.0 17.0 0.00 0.24 0.00 87 1010.0
20260904050628 69 167 6.0 16.0 0.00 0.24 0.00 87 1009.9
20260904050152 69 196 8.0 14.0 0.00 0.24 0.00 87 1010.1
20260904045618 69 230 6.0 17.0 0.00 0.24 0.00 87 1010.2
20260904045122 69 229 8.0 21.0 0.00 0.24 0.00 87 1010.5
20260904044642 69 237 7.0 21.0 0.00 0.24 0.00 87 1010.4
20260904044137 69 196 6.0 16.0 0.00 0.24 0.00 86 1010.7
20260904043623 69 173 4.0 15.0 0.00 0.24 0.00 86 1010.7
20260904043111 69 190 6.0 20.0 0.00 0.24 0.00 86 1010.7
20260904042616 69 229 7.0 20.0 0.00 0.24 0.00 86 1010.8
20260904042122 69 184 9.0 18.0 0.00 0.24 0.00 85 1010.8
20260904041622 69 214 9.0 18.0 0.00 0.24 0.00 85 1011.0
20260904041145 69 239 4.0 13.0 0.00 0.24 0.00 85 1011.1
20260904040618 69 188 5.0 13.0 0.00 0.24 0.00 85 1011.1
20260904040142 69 201 5.0 15.0 0.00 0.24 0.00 85 1011.1
20260904035624 69 259 8.0 18.0 0.00 0.24 0.00 85 1011.1
20260904035127 69 223 6.0 14.0 0.00 0.24 0.00 85 1011.3
20260904034642 69 235 5.0 14.0 0.00 0.24 0.00 85 1011.3
20260904034117 69 223 6.0 18.0 0.00 0.24 0.00 86 1011.3
20260904033618 69 233 4.0 15.0 0.00 0.24 0.00 86 1011.3
20260904033125 69 267 6.0 17.0 0.00 0.24 0.00 85 1011.2
20260904032621 69 239 7.0 17.0 0.00 0.24 0.00 85 1011.2
20260904032111 69 288 5.0 18.0 0.00 0.24 0.00 85 1011.4
20260904031615 69 297 6.0 18.0 0.00 0.24 0.00 86 1011.2
20260904031124 69 197 7.0 13.0 0.00 0.24 0.00 86 1011.4
20260904030629 69 211 4.0 17.0 0.00 0.24 0.00 86 1011.4
20260904030114 69 231 8.0 17.0 0.00 0.24 0.00 86 1011.4
20260904025626 69 240 6.0 17.0 0.00 0.24 0.00 86 1011.4
20260904025132 69 173 8.0 17.0 0.00 0.24 0.00 86 1011.4
20260904024616 69 236 8.0 17.0 0.00 0.24 0.00 86 1011.5
20260904024130 69 215 4.0 16.0 0.00 0.24 0.00 86 1011.6
20260904023634 69 191 7.0 16.0 0.00 0.24 0.00 86 1011.7
20260904023116 69 214 5.0 15.0 0.00 0.24 0.00 86 1011.9
20260904022623 69 221 8.0 15.0 0.00 0.24 0.00 86 1011.9
20260904022124 69 194 5.0 14.0 0.00 0.24 0.00 86 1011.9
20260904021625 69 192 5.0 15.0 0.00 0.24 0.00 86 1012.0
20260904021111 69 155 6.0 15.0 0.00 0.24 0.00 86 1012.0
20260904020622 69 232 7.0 15.0 0.00 0.24 0.00 86 1012.0
20260904020124 69 233 5.0 14.0 0.00 0.24 0.00 86 1012.1
20260904015614 69 192 8.0 14.0 0.00 0.24 0.00 86 1012.2
20260904015114 69 187 6.0 14.0 0.00 0.24 0.00 86 1012.3
20260904014617 69 229 6.0 15.0 0.00 0.24 0.00 86 1012.3
20260904014125 69 210 6.0 15.0 0.00 0.24 0.00 86 1012.5
20260904013645 69 229 5.0 11.0 0.00 0.24 0.00 86 1012.5
20260904013130 69 229 5.0 13.0 0.00 0.24 0.00 86 1012.6
20260904012622 69 193 7.0 13.0 0.00 0.24 0.00 86 1012.5
20260904012122 69 175 4.0 12.0 0.00 0.24 0.00 86 1012.6
20260904011617 69 229 8.0 19.0 0.00 0.24 0.00 86 1012.7
20260904011125 69 215 7.0 19.0 0.00 0.24 0.00 86 1012.7
20260904010623 69 23 5.0 14.0 0.00 0.24 0.00 87 1012.7
20260904010202 69 219 7.0 14.0 0.00 0.24 0.00 87 1012.9
20260904005625 69 224 4.0 12.0 0.00 0.24 0.00 87 1013.0
20260904005124 69 217 4.0 11.0 0.00 0.24 0.00 87 1013.1
20260904004634 69 223 6.0 12.0 0.00 0.24 0.00 87 1013.1
20260904004138 69 221 6.0 12.0 0.00 0.24 0.00 87 1013.2
20260904003641 69 236 5.0 14.0 0.00 0.24 0.00 87 1013.1
20260904003159 69 225 7.0 14.0 0.00 0.24 0.00 87 1013.2
20260904002611 69 198 3.0 16.0 0.00 0.24 0.00 86 1013.3
20260904002141 69 227 5.0 16.0 0.00 0.24 0.00 86 1013.4
20260904001623 69 223 7.0 20.0 0.00 0.24 0.00 86 1013.5
20260904001112 69 233 7.0 20.0 0.00 0.24 0.00 86 1013.4
20260904000637 69 232 5.0 12.0 0.00 0.24 0.00 86 1013.5
20260904000149 69 211 4.0 13.0 0.00 0.24 0.00 86 1013.5
20260903235618 69 215 4.0 14.0 0.00 0.24 0.00 86 1013.6
20260903235126 69 243 7.0 14.0 0.00 0.24 0.00 86 1013.5
20260903234627 69 205 4.0 14.0 0.00 0.24 0.00 86 1013.6
20260903234134 69 180 5.0 12.0 0.00 0.24 0.00 86 1013.7
20260903233622 69 215 6.0 12.0 0.00 0.24 0.00 86 1013.6
20260903233131 69 225 5.0 15.0 0.00 0.24 0.00 86 1013.7
20260903232615 69 232 4.0 12.0 0.00 0.24 0.00 86 1013.8
20260903232138 69 234 4.0 12.0 0.00 0.24 0.00 86 1013.8
20260903231619 69 203 5.0 15.0 0.00 0.24 0.00 86 1013.8
20260903231148 69 234 6.0 15.0 0.00 0.24 0.00 86 1013.8
20260903230618 69 236 4.0 13.0 0.00 0.24 0.00 86 1014.0
20260903230145 69 173 6.0 11.0 0.00 0.24 0.00 86 1014.1
20260903225615 69 188 7.0 13.0 0.00 0.24 0.00 86 1014.2
20260903225121 69 223 6.0 15.0 0.00 0.24 0.00 86 1014.1
20260903224621 69 252 6.0 15.0 0.00 0.24 0.00 86 1014.1
20260903224114 69 211 6.0 13.0 0.00 0.24 0.00 86 1014.2
20260903223630 69 226 5.0 14.0 0.00 0.24 0.00 86 1014.2
20260903223132 69 198 5.0 14.0 0.00 0.24 0.00 86 1014.3
20260903222625 69 196 5.0 11.0 0.00 0.24 0.00 86 1014.5
20260903222115 69 225 6.0 13.0 0.00 0.24 0.00 86 1014.7
20260903221622 69 204 7.0 13.0 0.00 0.24 0.00 86 1014.7
20260903221128 69 204 5.0 13.0 0.00 0.24 0.00 86 1014.7
20260903220629 69 234 5.0 14.0 0.00 0.24 0.00 86 1014.7
20260903220117 69 188 5.0 14.0 0.00 0.24 0.00 87 1014.7
20260903215627 69 188 4.0 7.0 0.00 0.24 0.05 87 1014.7
20260903215121 69 203 3.0 10.0 0.00 0.24 0.05 87 1014.7
20260903214614 69 225 5.0 11.0 0.00 0.24 0.05 87 1014.7
20260903214122 69 225 5.0 11.0 0.00 0.24 0.05 87 1014.8
20260903213649 69 234 4.0 11.0 0.00 0.24 0.05 86 1014.9
20260903213157 69 223 3.0 13.0 0.00 0.24 0.05 86 1014.9
20260903212623 69 202 7.0 13.0 0.00 0.24 0.05 86 1014.8
20260903212145 69 194 6.0 11.0 0.00 0.24 0.05 86 1014.9
20260903211649 69 223 4.0 11.0 0.00 0.24 0.05 86 1014.9
20260903211121 69 223 4.0 16.0 0.00 0.24 0.05 86 1015.0
20260903210632 69 204 5.0 16.0 0.00 0.24 0.05 86 1015.0
20260903210107 69 221 7.0 15.0 0.00 0.24 0.05 86 1015.0
20260903205627 69 234 8.0 14.0 0.00 0.24 0.05 86 1015.1
20260903205139 69 206 7.0 14.0 0.00 0.24 0.05 87 1015.0
20260903204627 69 122 3.0 11.0 0.00 0.24 0.05 87 1015.4
20260903204128 69 189 3.0 11.0 0.00 0.24 0.05 87 1015.5
20260903203633 69 235 4.0 9.0 0.00 0.24 0.05 87 1015.5
20260903203116 69 227 5.0 11.0 0.00 0.24 0.05 87 1015.4
20260903202621 69 185 2.0 8.0 0.00 0.24 0.05 87 1015.4
20260903202116 69 130 4.0 9.0 0.00 0.24 0.05 87 1015.4
20260903201628 69 220 4.0 11.0 0.00 0.24 0.05 87 1015.4
20260903201114 69 226 6.0 11.0 0.00 0.24 0.05 87 1015.4
20260903200622 69 217 5.0 13.0 0.00 0.24 0.05 86 1015.3
20260903200110 69 235 5.0 11.0 0.00 0.24 0.05 87 1015.4